Regional Weather Roundup
Issued by NWS

Current Version | Previous Version | Text Only | Print | Product List | Glossary On
Versions: 1 2 3 4 5 6 7 8 9 10 11 12 13 14 15 16 17 18 19 20 21 22 23 24 25 26 27 28 29 30 31 32 33 34 35 36 37 38 39 40 41 42 43 44 45 46 47 48 49 50
000
ASUS43 KTOP 160659
RWRKS

WEATHER ROUNDUP FOR KANSAS
NATIONAL WEATHER SERVICE GOODLAND KS
200 AM CDT MON SEP 16 2019

NOTE:  "FAIR" INDICATES FEW OR NO CLOUDS BELOW 12,000 FEET WITH NO
SIGNIFICANT WEATHER AND/OR OBSTRUCTIONS TO VISIBILITY.

KSZ001>006-013>018-027>032-041>047-160800-
NORTHWEST KANSAS

CITY           SKY/WX    TMP DP  RH WIND       PRES   REMARKS
GOODLAND       CLOUDY    67  56  67 S10       30.02S
HAYS           CLEAR     74  59  59 S14       30.03S
HILL CITY      CLEAR     76  58  53 S12G21    30.01F
RUSSELL        CLEAR     73  59  61 S12       30.02S
$$

KSZ061>065-074>080-084>089-160800-
SOUTHWEST KANSAS

CITY           SKY/WX    TMP DP  RH WIND       PRES   REMARKS
DODGE CITY     CLEAR     74  56  53 S10       30.08S
GARDEN CITY    CLEAR     71  55  56 S13       30.06S
GREAT BEND     CLEAR     72  60  66 S9        30.05S
LIBERAL        CLEAR     70  54  56 S13       30.10R
$$

KSZ066>073-081>083-090>101-160800-
SOUTHEAST KANSAS

CITY           SKY/WX    TMP DP  RH WIND       PRES   REMARKS
COFFEYVILLE    CLEAR     70  68  93 CALM      30.06R
HUTCHINSON     CLEAR     71  64  78 SE3       30.06R
MEDICINE LODGE   N/A     73  62  68 SE7       30.06S
NEWTON         CLEAR     70  66  87 S7        30.08R
PARSONS        CLEAR     69  68  96 CALM      30.08S FOG
WICHITA INTL   PTCLDY    72  66  81 S5        30.06S
WICHITA JABRA  CLEAR     73  67  81 S7        30.06S
WICHITA MCCONL CLEAR     73  65  74 SE7       30.07R
WINFIELD       CLEAR     73  68  84 S7        30.08R
$$

KSZ007>012-019>026-033>040-048>060-102>105-160800-
NORTHEAST KANSAS

CITY           SKY/WX    TMP DP  RH WIND       PRES   REMARKS
CONCORDIA      CLEAR     76  64  66 S15       30.02R
EMPORIA        CLEAR     71  68  90 S8        30.06R
LAWRENCE       CLEAR     70  68  93 VRB3      30.05R
MANHATTAN      CLEAR     72  67  84 CALM      30.03R
OLATHE IND     CLEAR     70  68  93 S5        30.07R
OLATHE EXE     CLEAR     73  69  87 S6        30.07R
SALINA         CLEAR     74  64  71 S10       30.03S
TOPEKA BILLARD CLEAR     76  68  76 S6        30.04R
TOPEKA FORBES  CLEAR     73  68  84 S6        30.05R
$$



USA.gov is the U.S. government's official web portal to all federal, state and local government web resources and services.